QPF
0.02 0.09 0.07 0.00 0.00 0.04 0.02 0.00 0.00 0.01 0.04 0.03 0.06 0.07 0.09 0.01 0.00 0.00 0.00 0.00 0.00 0.00 0.00 0.00 0.00 0.00 0.00 0.00 0.00 0.00 0.00 0.00 0.00 0.00 0.00 0.00 0.00 0.00 0.00 0.00 0.00 0.00 0.00 0.00 0.00 0.00 0.00 0.00 0.00
0.07 0.05 0.01 0.00 0.00 0.01 0.00 0.00 0.01 0.00 0.03 0.04 0.11 0.07 0.05 0.00 0.00 0.00 0.00 0.00 0.00 0.00 0.00 0.00 0.00 0.00 0.00 0.00 0.00 0.00 0.00 0.00 0.00 0.00 0.00 0.00 0.00 0.00 0.00 0.00 0.00 0.00 0.00 0.00 0.00 0.00 0.00 0.00 0.00
0.06 0.01 0.03 0.00 0.00 0.00 0.00 0.00 0.00 0.01 0.01 0.07 0.12 0.04 0.01 0.00 0.00 0.00 0.00 0.00 0.00 0.00 0.00 0.00 0.00 0.00 0.00 0.00 0.00 0.00 0.00 0.00 0.00 0.00 0.00 0.00 0.00 0.00 0.00 0.00 0.00 0.00 0.00 0.00 0.00 0.00 0.00 0.00 0.00
0.00 0.00 0.00 0.00 0.00 0.00 0.00 0.00 0.00 0.01 0.06 0.08 0.26 0.08 0.00 0.00 0.01 0.00 0.00 0.00 0.00 0.00 0.00 0.00 0.00 0.00 0.00 0.00 0.00 0.00 0.00 0.00 0.00 0.00 0.00 0.00 0.00 0.00 0.00 0.00 0.00 0.00 0.00 0.00 0.00 0.00 0.00 0.00 0.00
0.00 0.00 0.00 0.00 0.00 0.00 0.00 0.00 0.00 0.00 0.02 0.08 0.19 0.15 0.00 0.00 0.01 0.00 0.00 0.00 0.00 0.00 0.00 0.00 0.00 0.00 0.00 0.00 0.00 0.00 0.00 0.00 0.00 0.00 0.00 0.00 0.00 0.00 0.00 0.00 0.00 0.00 0.00 0.00 0.00 0.00 0.00 0.00 0.00
0.00 0.00 0.00 0.00 0.00 0.00 0.00 0.00 0.00 0.00 0.00 0.06 0.20 0.11 0.01 0.00 0.00 0.00 0.00 0.00 0.00 0.00 0.00 0.00 0.00 0.00 0.00 0.00 0.00 0.00 0.00 0.00 0.00 0.00 0.00 0.00 0.00 0.00 0.00 0.00 0.00 0.00 0.00 0.00 0.00 0.00 0.00 0.00 0.00
0.00 0.00 0.00 0.00 0.00 0.00 0.00 0.00 0.00 0.00 0.00 0.00 0.06 0.07 0.00 0.00 0.00 0.00 0.00 0.00 0.00 0.00 0.00 0.00 0.00 0.00 0.00 0.00 0.00 0.00 0.00 0.00 0.00 0.00 0.00 0.00 0.00 0.00 0.00 0.00 0.00 0.00 0.00 0.00 0.00 0.00 0.00 0.00 0.00
0.00 0.00 0.00 0.00 0.00 0.00 0.00 0.00 0.00 0.00 0.00 0.00 0.00 0.00 0.00 0.00 0.00 0.00 0.00 0.00 0.00 0.00 0.00 0.00 0.00 0.00 0.00 0.00 0.00 0.00 0.00 0.00 0.00 0.00 0.00 0.00 0.00 0.00 0.00 0.00 0.00 0.00 0.00 0.00 0.00 0.00 0.00 0.00 0.00
0.00 0.00 0.00 0.00 0.00 0.00 0.00 0.00 0.00 0.00 0.00 0.00 0.00 0.00 0.00 0.00 0.00 0.00 0.00 0.00 0.00 0.00 0.00 0.00 0.00 0.00 0.00 0.00 0.00 0.00 0.00 0.00 0.00 0.00 0.00 0.00 0.00 0.00 0.00 0.00 0.00 0.00 0.00 0.00 0.00 0.00 0.00 0.00 0.00
0.00 0.00 0.00 0.00 0.00 0.00 0.00 0.00 0.00 0.00 0.00 0.00 0.00 0.00 0.00 0.00 0.00 0.00 0.00 0.00 0.00 0.00 0.00 0.00 0.00 0.00 0.00 0.00 0.00 0.00 0.00 0.00 0.00 0.00 0.00 0.00 0.00 0.00 0.00 0.00 0.00 0.00 0.00 0.00 0.00 0.00 0.00 0.00 0.00
0.00 0.00 0.00 0.00 0.00 0.00 0.00 0.00 0.00 0.00 0.00 0.00 0.00 0.00 0.00 0.00 0.00 0.00 0.00 0.00 0.00 0.00 0.00 0.00 0.00 0.00 0.00 0.00 0.00 0.00 0.00 0.00 0.00 0.00 0.00 0.00 0.00 0.00 0.00 0.00 0.00 0.00 0.00 0.00 0.00 0.00 0.00 0.00 0.00
0.00 0.00 0.00 0.00 0.00 0.00 0.00 0.00 0.00 0.00 0.00 0.00 0.00 0.00 0.00 0.00 0.00 0.00 0.00 0.00 0.00 0.00 0.00 0.00 0.00 0.00 0.00 0.00 0.00 0.00 0.00 0.00 0.00 0.00 0.00 0.00 0.00 0.00 0.00 0.00 0.00 0.00 0.00 0.00 0.00 0.00 0.00 0.00 0.00
0.00 0.00 0.00 0.00 0.00 0.00 0.00 0.00 0.00 0.00 0.00 0.00 0.00 0.00 0.00 0.00 0.00 0.00 0.00 0.00 0.00 0.00 0.00 0.00 0.00 0.00 0.00 0.00 0.00 0.00 0.00 0.00 0.00 0.00 0.00 0.00 0.00 0.00 0.00 0.00 0.00 0.00 0.00 0.00 0.00 0.00 0.00 0.00 0.00
0.00 0.00 0.00 0.00 0.00 0.00 0.00 0.00 0.00 0.00 0.00 0.00 0.00 0.00 0.00 0.00 0.00 0.00 0.00 0.00 0.00 0.00 0.00 0.00 0.00 0.00 0.00 0.00 0.00 0.00 0.00 0.00 0.00 0.00 0.00 0.00 0.00 0.00 0.00 0.00 0.00 0.00 0.00 0.00 0.00 0.00 0.00 0.00 0.00
0.00 0.00 0.00 0.00 0.00 0.00 0.00 0.00 0.00 0.00 0.00 0.00 0.00 0.00 0.00 0.00 0.00 0.00 0.00 0.00 0.00 0.00 0.00 0.00 0.00 0.00 0.00 0.00 0.00 0.00 0.00 0.00 0.00 0.00 0.00 0.00 0.00 0.00 0.00 0.00 0.00 0.00 0.00 0.00 0.00 0.00 0.00 0.00 0.00
0.00 0.00 0.00 0.00 0.00 0.00 0.00 0.00 0.00 0.00 0.00 0.00 0.00 0.00 0.00 0.00 0.00 0.00 0.00 0.00 0.00 0.00 0.00 0.00 0.00 0.00 0.00 0.00 0.00 0.00 0.00 0.00 0.00 0.00 0.00 0.00 0.00 0.00 0.00 0.00 0.00 0.00 0.00 0.00 0.00 0.00 0.00 0.00 0.00
0.00 0.00 0.00 0.00 0.00 0.00 0.00 0.00 0.00 0.00 0.00 0.00 0.00 0.00 0.00 0.00 0.00 0.00 0.00 0.00 0.00 0.00 0.00 0.00 0.00 0.00 0.00 0.00 0.00 0.00 0.00 0.00 0.00 0.00 0.00 0.00 0.00 0.00 0.00 0.00 0.00 0.00 0.00 0.00 0.00 0.00 0.00 0.00 0.00
0.00 0.00 0.00 0.00 0.00 0.00 0.00 0.00 0.00 0.00 0.00 0.00 0.00 0.00 0.00 0.00 0.00 0.00 0.00 0.00 0.00 0.00 0.00 0.00 0.00 0.00 0.00 0.00 0.00 0.00 0.00 0.00 0.00 0.00 0.00 0.00 0.00 0.00 0.00 0.00 0.00 0.00 0.00 0.00 0.00 0.00 0.00 0.00 0.00
0.00 0.00 0.00 0.00 0.00 0.00 0.00 0.00 0.00 0.00 0.00 0.00 0.00 0.00 0.00 0.00 0.00 0.00 0.00 0.00 0.00 0.00 0.00 0.00 0.00 0.00 0.00 0.00 0.00 0.00 0.00 0.00 0.00 0.00 0.00 0.00 0.00 0.00 0.00 0.00 0.00 0.00 0.00 0.00 0.00 0.00 0.00 0.00 0.00
0.00 0.00 0.00 0.00 0.00 0.00 0.00 0.00 0.00 0.00 0.00 0.00 0.00 0.00 0.00 0.00 0.00 0.00 0.00 0.00 0.00 0.00 0.00 0.00 0.00 0.00 0.00 0.00 0.00 0.00 0.00 0.00 0.00 0.00 0.00 0.00 0.00 0.00 0.00 0.00 0.00 0.00 0.00 0.00 0.00 0.00 0.00 0.00 0.00
0.00 0.00 0.00 0.00 0.00 0.00 0.00 0.00 0.00 0.00 0.00 0.00 0.00 0.00 0.00 0.00 0.00 0.00 0.00 0.00 0.00 0.00 0.00 0.00 0.00 0.00 0.00 0.00 0.00 0.00 0.00 0.00 0.00 0.00 0.00 0.00 0.00 0.00 0.00 0.00 0.00 0.00 0.00 0.00 0.00 0.00 0.00 0.00 0.00
0.00 0.00 0.00 0.00 0.00 0.00 0.00 0.00 0.00 0.00 0.00 0.00 0.00 0.00 0.00 0.00 0.00 0.00 0.00 0.00 0.00 0.00 0.00 0.00 0.00 0.00 0.00 0.00 0.00 0.00 0.00 0.00 0.00 0.00 0.00 0.00 0.00 0.00 0.00 0.00 0.00 0.00 0.00 0.00 0.00 0.00 0.00 0.00 0.00
0.00 0.00 0.00 0.00 0.00 0.00 0.00 0.00 0.00 0.00 0.00 0.00 0.00 0.00 0.00 0.00 0.00 0.00 0.00 0.00 0.00 0.00 0.00 0.00 0.00 0.00 0.00 0.00 0.00 0.00 0.00 0.00 0.00 0.00 0.00 0.00 0.00 0.00 0.00 0.00 0.00 0.00 0.00 0.00 0.00 0.00 0.00 0.00 0.00
0.00 0.00 0.00 0.00 0.00 0.00 0.00 0.00 0.00 0.00 0.00 0.00 0.00 0.00 0.00 0.00 0.00 0.00 0.00 0.00 0.00 0.00 0.00 0.00 0.00 0.00 0.00 0.00 0.00 0.00 0.00 0.00 0.00 0.00 0.00 0.00 0.00 0.00 0.00 0.00 0.00 0.00 0.00 0.00 0.00 0.00 0.00 0.00 0.00
0.00 0.00 0.00 0.00 0.00 0.00 0.00 0.00 0.00 0.00 0.00 0.00 0.00 0.00 0.00 0.00 0.00 0.00 0.00 0.00 0.00 0.00 0.00 0.00 0.00 0.00 0.00 0.00 0.00 0.00 0.00 0.00 0.00 0.00 0.00 0.00 0.00 0.00 0.00 0.00 0.00 0.00 0.00 0.00 0.00 0.00 0.00 0.00 0.00
0.00 0.00 0.00 0.01 0.00 0.00 0.00 0.00 0.00 0.00 0.00 0.00 0.00 0.00 0.00 0.00 0.00 0.00 0.00 0.00 0.00 0.00 0.00 0.00 0.00 0.00 0.00 0.00 0.00 0.00 0.00 0.00 0.00 0.00 0.00 0.00 0.00 0.00 0.00 0.00 0.00 0.00 0.00 0.00 0.00 0.00 0.00 0.00 0.00
0.00 0.00 0.00 0.00 0.00 0.00 0.00 0.00 0.00 0.00 0.00 0.00 0.00 0.00 0.00 0.00 0.00 0.00 0.00 0.00 0.00 0.00 0.00 0.00 0.00 0.00 0.00 0.00 0.00 0.00 0.00 0.00 0.00 0.00 0.00 0.00 0.00 0.00 0.00 0.00 0.00 0.00 0.00 0.00 0.00 0.00 0.00 0.00 0.00
0.00 0.00 0.00 0.00 0.00 0.00 0.00 0.00 0.00 0.00 0.00 0.00 0.00 0.00 0.00 0.00 0.00 0.00 0.00 0.00 0.00 0.00 0.00 0.00 0.00 0.00 0.00 0.00 0.00 0.00 0.00 0.00 0.00 0.00 0.00 0.00 0.00 0.00 0.00 0.00 0.00 0.00 0.00 0.00 0.00 0.00 0.00 0.00 0.00
0.00 0.00 0.00 0.00 0.00 0.00 0.00 0.00 0.00 0.00 0.00 0.00 0.00 0.00 0.00 0.00 0.00 0.00 0.00 0.00 0.00 0.00 0.00 0.00 0.00 0.00 0.00 0.00 0.00 0.00 0.00 0.00 0.00 0.00 0.00 0.00 0.00 0.00 0.00 0.00 0.00 0.00 0.00 0.00 0.00 0.00 0.00 0.00 0.00
0.00 0.00 0.00 0.00 0.00 0.00 0.00 0.00 0.00 0.00 0.00 0.00 0.00 0.00 0.00 0.00 0.00 0.00 0.00 0.00 0.00 0.00 0.00 0.00 0.00 0.00 0.00 0.00 0.00 0.00 0.00 0.00 0.00 0.00 0.00 0.00 0.00 0.00 0.00 0.00 0.00 0.00 0.00 0.00 0.00 0.00 0.00 0.00 0.00
MSLP
1012.70 1013.05 1014.76 1014.01 1015.18 1015.10 1014.21 1013.18 1012.33 1012.09 1011.86 1011.67 1011.94 1011.64 1013.21 1013.01 1012.90 1013.50 1013.11 1013.21 1013.03 1013.25 1013.49 1013.82 1014.28 1014.86 1015.29 1015.78 1016.27 1016.81 1017.21 1017.61 1017.97 1018.17 1018.59 1018.99 1019.28 1019.61 1019.69 1019.87 1020.17 1020.18 1020.25 1020.41 1020.52 1020.52 1020.58 1020.44 1020.44
1012.93 1013.28 1013.94 1014.28 1014.68 1014.25 1013.10 1012.35 1012.42 1011.93 1011.88 1012.10 1011.88 1012.19 1013.36 1012.70 1012.76 1013.13 1013.15 1013.33 1013.01 1013.20 1013.41 1013.82 1014.42 1015.02 1015.50 1015.97 1016.65 1017.05 1017.37 1017.92 1018.27 1018.52 1018.86 1019.29 1019.55 1019.89 1020.13 1020.24 1020.66 1020.52 1020.43 1020.94 1021.11 1020.92 1021.06 1020.90 1020.91
1012.74 1012.92 1014.55 1014.22 1013.57 1012.90 1011.83 1011.26 1011.13 1011.95 1012.14 1011.89 1011.99 1012.70 1013.00 1012.18 1012.49 1012.48 1012.64 1013.27 1013.11 1013.23 1013.66 1013.91 1014.77 1015.21 1015.73 1016.10 1016.63 1017.15 1017.57 1017.97 1018.42 1018.74 1019.15 1019.56 1019.78 1020.10 1020.42 1020.61 1020.90 1020.83 1021.09 1021.25 1021.40 1021.57 1021.50 1021.41 1021.33
1012.47 1013.39 1014.17 1013.96 1012.65 1011.59 1011.09 1010.41 1010.55 1011.46 1011.89 1011.84 1012.41 1012.88 1012.36 1011.83 1012.14 1012.24 1012.56 1013.37 1013.00 1013.67 1013.60 1014.20 1014.86 1015.41 1015.82 1016.26 1016.74 1017.19 1017.70 1018.06 1018.44 1018.97 1019.34 1019.89 1020.02 1020.47 1020.70 1020.94 1020.83 1021.24 1021.39 1021.76 1021.63 1021.90 1022.04 1021.77 1021.91
1012.21 1013.03 1013.46 1012.85 1011.41 1010.68 1010.29 1010.15 1010.22 1011.13 1011.46 1012.21 1012.38 1012.33 1011.92 1011.78 1012.23 1012.50 1012.70 1013.05 1013.29 1013.74 1013.81 1014.41 1015.05 1015.47 1016.06 1016.40 1016.84 1017.34 1017.86 1018.21 1018.60 1019.10 1019.47 1019.88 1020.16 1020.64 1021.13 1021.14 1021.04 1021.43 1022.03 1022.17 1022.34 1022.25 1022.40 1022.16 1022.25
1012.60 1012.69 1012.49 1011.45 1010.71 1010.15 1009.73 1009.74 1009.82 1010.17 1011.14 1012.11 1012.27 1012.54 1012.05 1012.14 1012.44 1012.74 1013.06 1013.41 1013.47 1013.67 1014.18 1014.63 1015.25 1015.72 1016.12 1016.45 1017.11 1017.59 1018.10 1018.45 1018.82 1019.30 1019.55 1019.96 1020.23 1020.89 1021.40 1021.23 1021.19 1021.48 1022.36 1022.64 1022.65 1022.74 1022.68 1022.50 1022.58
1011.89 1012.17 1011.10 1010.43 1009.81 1009.58 1008.94 1008.74 1009.11 1010.01 1010.50 1011.30 1011.41 1012.13 1012.08 1012.28 1012.64 1012.95 1013.53 1013.57 1013.77 1014.16 1014.55 1014.84 1015.26 1015.65 1016.25 1016.73 1017.36 1017.85 1018.43 1018.65 1019.10 1019.53 1019.97 1020.25 1020.51 1021.03 1021.40 1021.55 1021.59 1021.75 1022.18 1022.90 1022.97 1023.17 1023.03 1022.95 1022.95
1011.09 1011.27 1010.45 1009.45 1009.05 1008.33 1007.86 1007.81 1007.83 1008.37 1010.01 1010.34 1010.62 1011.28 1011.48 1011.24 1012.16 1012.95 1013.71 1013.97 1014.04 1014.37 1014.67 1015.19 1015.31 1015.73 1016.41 1016.99 1017.58 1018.13 1018.46 1018.97 1019.23 1019.89 1020.62 1020.77 1021.32 1021.58 1021.88 1022.14 1022.12 1022.48 1022.72 1022.98 1023.37 1023.49 1023.39 1023.44 1023.36
1010.69 1010.61 1008.91 1008.22 1008.19 1007.38 1006.95 1007.37 1007.59 1007.87 1009.42 1010.30 1010.41 1010.38 1010.34 1010.58 1011.93 1013.03 1013.70 1014.37 1014.34 1014.59 1015.13 1015.39 1015.50 1015.89 1016.49 1017.10 1017.88 1018.27 1018.80 1019.24 1019.57 1020.14 1021.28 1021.63 1021.83 1022.25 1022.55 1022.82 1022.68 1022.70 1022.99 1023.48 1023.69 1023.79 1023.63 1023.99 1024.02
1010.04 1009.38 1007.83 1007.18 1007.09 1006.61 1006.51 1006.55 1006.57 1008.06 1008.85 1009.80 1010.18 1010.75 1010.94 1011.23 1011.63 1012.16 1012.67 1013.33 1013.88 1014.64 1015.02 1015.43 1015.57 1015.98 1016.55 1017.29 1018.08 1018.55 1019.27 1019.80 1020.20 1020.82 1022.03 1021.72 1022.20 1022.54 1022.92 1023.47 1023.29 1023.35 1023.65 1024.11 1024.08 1024.14 1024.13 1024.24 1024.43
1008.64 1007.39 1007.18 1006.45 1006.25 1006.53 1006.36 1006.29 1005.81 1007.32 1007.91 1007.94 1008.18 1010.00 1010.91 1011.30 1011.63 1012.11 1012.31 1012.44 1013.28 1014.35 1014.97 1015.13 1015.48 1016.06 1016.66 1017.56 1018.38 1018.95 1019.69 1020.40 1020.77 1021.37 1022.00 1022.07 1022.69 1022.84 1023.44 1023.87 1024.02 1024.04 1024.28 1024.77 1024.63 1024.65 1024.54 1024.63 1024.92
1007.63 1006.69 1006.28 1005.68 1005.83 1006.05 1006.00 1005.79 1006.05 1005.83 1005.49 1005.93 1007.00 1008.55 1010.36 1010.73 1010.92 1011.19 1011.60 1011.97 1012.70 1013.90 1014.45 1014.94 1015.45 1016.15 1016.65 1017.45 1018.32 1019.24 1019.97 1020.66 1021.20 1021.76 1021.87 1022.24 1023.08 1023.14 1023.17 1023.99 1024.17 1024.44 1024.66 1025.06 1025.01 1025.07 1025.01 1025.13 1025.38
1006.60 1005.76 1005.74 1005.66 1005.79 1005.69 1005.77 1005.48 1005.26 1005.25 1005.43 1005.99 1006.47 1007.85 1008.57 1009.48 1010.02 1010.75 1011.41 1012.04 1012.70 1013.44 1014.22 1014.77 1015.51 1016.05 1016.75 1017.47 1018.43 1019.08 1020.04 1020.89 1021.18 1021.83 1022.32 1022.64 1023.01 1023.12 1023.14 1023.85 1024.46 1024.64 1024.93 1025.24 1025.23 1025.21 1025.21 1025.42 1025.68
1004.78 1004.96 1004.88 1004.95 1005.32 1005.91 1006.06 1005.42 1005.58 1005.06 1005.25 1006.15 1006.71 1007.32 1007.86 1008.25 1008.94 1010.28 1010.76 1011.08 1011.79 1012.94 1013.53 1014.40 1015.29 1015.89 1016.49 1017.54 1018.21 1019.17 1019.83 1020.69 1020.91 1021.91 1022.33 1022.75 1023.11 1023.13 1023.27 1023.83 1024.39 1024.79 1025.13 1025.47 1025.36 1025.30 1025.40 1025.73 1025.79
1004.31 1004.86 1004.70 1004.39 1004.81 1005.29 1005.65 1005.32 1004.16 1004.59 1004.94 1005.51 1006.12 1006.49 1007.29 1007.57 1008.76 1008.53 1008.35 1009.47 1010.37 1011.30 1012.55 1013.75 1015.01 1015.41 1016.19 1017.16 1018.01 1018.98 1019.93 1020.46 1021.25 1021.83 1022.39 1022.16 1023.18 1023.07 1023.41 1023.84 1024.33 1024.84 1025.29 1025.49 1025.46 1025.52 1025.60 1025.66 1025.68
1004.60 1005.01 1004.44 1003.44 1004.35 1004.73 1005.07 1001.81 1003.19 1003.66 1004.63 1004.90 1005.47 1005.77 1006.22 1006.70 1006.82 1007.52 1008.25 1008.97 1010.28 1011.19 1012.05 1013.44 1014.35 1015.10 1016.20 1017.05 1017.86 1018.74 1019.39 1020.10 1021.29 1021.81 1022.24 1022.16 1023.27 1023.07 1023.32 1023.84 1024.31 1024.87 1025.30 1025.40 1025.35 1025.53 1025.58 1025.80 1025.64
1003.94 1003.03 1003.08 1003.62 1003.46 1004.13 1003.86 1002.17 1002.38 1003.03 1003.83 1004.07 1004.60 1004.98 1005.43 1005.91 1006.53 1006.92 1007.13 1008.01 1009.13 1010.16 1011.39 1012.50 1013.53 1014.73 1015.61 1016.80 1017.73 1018.65 1019.30 1020.01 1021.20 1021.79 1021.92 1022.29 1023.17 1022.93 1023.29 1023.79 1024.41 1024.91 1025.29 1025.40 1025.24 1025.63 1025.91 1026.00 1025.77
1002.18 1002.82 1002.71 1002.52 1003.15 1003.45 1003.35 1002.29 1002.50 1002.51 1003.07 1003.11 1003.43 1004.02 1004.73 1004.92 1004.87 1005.49 1006.53 1007.55 1008.75 1010.00 1011.05 1011.80 1013.01 1014.16 1015.01 1016.52 1017.75 1018.67 1019.42 1020.30 1020.93 1021.38 1021.40 1022.32 1022.93 1022.95 1023.34 1023.80 1024.37 1024.94 1025.23 1025.33 1025.44 1025.67 1026.11 1026.33 1026.16
1002.32 1002.45 1002.16 1002.09 1002.13 1002.44 1002.05 1002.20 1001.69 1002.29 1002.51 1002.60 1002.82 1003.48 1004.16 1004.28 1004.09 1005.41 1006.29 1007.20 1008.29 1009.47 1010.51 1011.35 1012.35 1013.53 1014.34 1015.75 1016.91 1018.09 1018.78 1019.82 1020.77 1021.06 1021.31 1022.19 1022.72 1022.95 1023.16 1023.72 1024.47 1024.88 1024.87 1025.13 1025.46 1025.79 1026.18 1026.31 1026.23
1001.72 1001.51 1001.35 1002.40 1002.13 1002.36 1002.04 1001.42 1001.39 1001.86 1001.30 1001.48 1001.90 1002.40 1003.05 1003.63 1004.22 1004.84 1005.61 1006.49 1007.38 1008.15 1009.17 1010.46 1011.23 1012.32 1013.20 1014.65 1015.76 1016.73 1017.93 1019.31 1020.00 1020.62 1021.31 1021.89 1022.49 1022.75 1022.95 1023.52 1024.26 1024.57 1024.79 1025.16 1025.54 1025.91 1026.21 1026.51 1026.75
1000.77 1000.44 1002.13 1002.63 1002.97 1003.14 1002.88 1002.11 1001.17 1000.76 1000.66 1000.75 1000.64 1000.75 1001.30 1001.91 1002.92 1003.95 1004.82 1005.36 1006.28 1007.38 1008.10 1009.07 1010.02 1011.27 1012.15 1013.93 1015.28 1016.52 1018.11 1019.37 1020.18 1020.53 1021.05 1021.62 1022.15 1022.44 1022.67 1023.40 1023.99 1024.33 1024.56 1025.05 1025.55 1025.96 1026.27 1026.59 1027.13
999.77 1001.34 1002.38 1002.85 1003.22 1003.15 1003.02 1001.24 1000.07 999.78 999.88 999.89 999.68 999.88 1000.11 1000.64 1001.61 1002.67 1003.58 1004.58 1005.13 1005.69 1006.89 1007.95 1009.21 1009.99 1011.55 1012.62 1013.71 1014.49 1015.22 1016.85 1017.82 1019.05 1020.24 1021.29 1021.86 1022.23 1022.63 1023.26 1023.74 1024.05 1024.45 1025.01 1025.55 1026.01 1026.44 1026.89 1027.04
999.28 1000.15 1002.16 1002.98 1003.37 1003.43 1002.99 1002.26 998.02 998.90 998.64 997.97 998.43 998.74 998.98 999.58 1000.08 1000.99 1001.88 1002.51 1003.36 1004.77 1005.81 1006.98 1008.18 1009.24 1010.34 1011.27 1012.28 1013.45 1014.56 1016.01 1017.18 1018.64 1019.93 1020.86 1021.57 1021.93 1022.42 1023.12 1023.56 1023.90 1024.31 1024.98 1025.34 1025.91 1026.57 1027.06 1027.11
1000.12 1001.36 1002.58 1003.33 1003.93 1003.80 1000.59 1000.81 997.62 997.83 997.05 997.63 997.45 997.51 997.59 998.28 998.90 999.23 1000.10 1001.46 1002.71 1003.93 1004.94 1006.07 1007.07 1008.10 1009.36 1010.61 1011.67 1012.54 1013.54 1014.93 1016.35 1017.91 1019.16 1020.28 1021.15 1021.82 1022.30 1022.92 1023.34 1023.61 1024.17 1024.85 1025.28 1025.79 1026.43 1026.88 1027.03
999.24 1000.19 1002.38 1003.79 1004.14 1000.15 999.55 1000.62 996.66 996.13 996.13 996.08 996.48 996.53 996.55 996.73 997.16 997.95 999.15 1000.21 1001.52 1002.75 1003.87 1004.71 1005.74 1006.94 1008.12 1009.49 1010.64 1011.70 1012.60 1013.80 1014.92 1016.45 1017.82 1019.29 1020.48 1021.24 1021.84 1022.49 1023.04 1023.44 1024.01 1024.69 1025.11 1025.63 1026.20 1026.65 1026.86
997.82 998.64 999.57 1000.75 1001.31 998.60 999.76 998.63 996.33 995.43 995.39 995.28 995.37 995.44 995.28 995.85 996.74 997.44 998.14 998.99 1000.05 1001.20 1002.23 1003.28 1004.45 1005.81 1007.03 1008.34 1009.46 1010.85 1011.91 1013.14 1014.38 1015.56 1016.92 1018.38 1019.44 1020.38 1021.30 1022.14 1022.72 1023.19 1023.83 1024.49 1024.95 1025.54 1026.08 1026.50 1026.63
997.74 997.74 997.84 999.26 1000.26 1000.49 999.72 998.13 996.79 995.83 995.30 994.80 994.73 994.93 994.70 995.48 996.22 996.92 997.43 998.04 999.07 1000.22 1001.22 1002.25 1003.49 1004.80 1005.95 1007.13 1008.53 1009.79 1011.07 1012.26 1013.43 1014.89 1016.45 1017.80 1019.04 1020.06 1021.12 1021.84 1022.48 1023.06 1023.65 1024.18 1024.81 1025.35 1025.89 1026.17 1026.29
996.58 996.92 998.37 998.70 999.40 999.76 998.74 997.79 996.66 995.73 994.96 994.20 994.52 994.96 995.40 995.69 996.08 996.64 997.08 997.58 998.30 999.28 1000.42 1001.79 1002.82 1003.67 1005.07 1006.55 1007.71 1008.92 1010.39 1011.65 1012.97 1014.31 1015.70 1017.15 1018.47 1019.67 1020.85 1021.65 1022.31 1023.02 1023.58 1024.12 1024.74 1025.15 1025.65 1025.88 1026.04
996.81 997.09 997.57 997.94 998.21 998.18 998.08 996.59 995.69 995.37 995.73 995.41 995.24 995.23 995.53 995.81 996.16 996.47 997.00 997.61 998.20 999.03 1000.00 1001.13 1002.34 1003.59 1005.00 1006.13 1007.41 1008.77 1010.01 1011.24 1012.41 1013.65 1015.19 1016.61 1017.91 1019.22 1020.38 1021.18 1021.96 1022.68 1023.45 1024.07 1024.53 1024.92 1025.36 1025.62 1025.67
996.73 996.56 997.17 997.61 998.04 997.81 997.69 996.22 995.19 995.57 996.24 996.36 996.46 996.21 996.07 996.42 996.79 997.09 997.43 997.99 998.73 999.28 999.93 1000.72 1002.08 1003.48 1004.78 1005.89 1007.15 1008.55 1009.92 1011.07 1012.28 1013.73 1015.04 1016.28 1017.61 1018.95 1019.94 1020.95 1021.73 1022.53 1023.25 1023.89 1024.29 1024.71 1024.92 1025.13 1025.20
Thickness
5625 5625 5616 5622 5605 5603 5612 5631 5649 5654 5662 5669 5674 5679 5668 5676 5680 5683 5697 5701 5707 5709 5709 5709 5707 5704 5703 5702 5700 5697 5696 5694 5694 5694 5692 5689 5687 5685 5686 5685 5683 5685 5683 5682 5681 5681 5680 5682 5681
5622 5622 5616 5610 5601 5601 5620 5639 5635 5654 5661 5663 5669 5672 5660 5669 5682 5686 5693 5697 5704 5705 5707 5705 5701 5701 5700 5699 5695 5693 5693 5690 5689 5689 5687 5684 5682 5680 5680 5680 5677 5680 5680 5675 5673 5675 5673 5675 5674
5623 5623 5600 5606 5611 5611 5626 5641 5650 5648 5655 5663 5667 5666 5666 5678 5682 5690 5696 5694 5701 5703 5700 5701 5696 5697 5695 5696 5693 5690 5690 5688 5686 5685 5682 5680 5679 5678 5676 5674 5674 5674 5671 5670 5669 5667 5667 5668 5668
5621 5612 5605 5603 5610 5627 5635 5645 5650 5648 5650 5660 5657 5655 5670 5680 5683 5689 5692 5689 5700 5695 5699 5697 5694 5691 5692 5692 5690 5689 5687 5686 5684 5680 5678 5674 5674 5672 5672 5671 5672 5668 5667 5663 5665 5661 5660 5662 5662
5618 5609 5600 5602 5620 5633 5638 5645 5649 5645 5648 5651 5653 5660 5667 5676 5679 5686 5690 5691 5692 5692 5695 5692 5687 5688 5686 5687 5687 5684 5682 5681 5680 5677 5675 5673 5671 5669 5665 5667 5668 5664 5658 5657 5655 5655 5654 5657 5656
5602 5604 5599 5611 5619 5632 5639 5645 5647 5647 5646 5641 5646 5650 5665 5668 5671 5677 5682 5683 5686 5691 5687 5686 5683 5683 5683 5684 5680 5678 5676 5676 5675 5672 5672 5669 5669 5664 5661 5664 5665 5663 5653 5651 5650 5649 5650 5651 5651
5603 5599 5612 5618 5620 5623 5638 5649 5644 5641 5643 5641 5653 5646 5660 5663 5665 5670 5673 5678 5681 5680 5679 5681 5680 5681 5678 5678 5674 5673 5670 5671 5668 5667 5665 5664 5664 5661 5659 5659 5660 5658 5654 5647 5646 5644 5645 5645 5645
5605 5603 5611 5619 5623 5629 5646 5651 5658 5653 5639 5647 5654 5649 5659 5666 5666 5664 5666 5670 5675 5673 5675 5673 5677 5675 5673 5672 5669 5667 5667 5664 5665 5661 5657 5657 5654 5653 5652 5651 5652 5648 5646 5644 5640 5639 5640 5639 5639
5602 5593 5615 5626 5623 5638 5647 5645 5654 5657 5646 5640 5648 5657 5663 5669 5663 5659 5659 5660 5666 5668 5667 5667 5670 5669 5669 5667 5662 5662 5661 5660 5660 5657 5649 5650 5650 5646 5644 5642 5643 5644 5641 5636 5635 5634 5635 5633 5631
5595 5598 5621 5637 5637 5639 5645 5649 5654 5641 5638 5635 5643 5642 5653 5656 5660 5662 5663 5662 5664 5662 5662 5661 5665 5666 5665 5660 5657 5657 5653 5654 5653 5649 5641 5646 5643 5640 5638 5633 5635 5636 5633 5628 5629 5627 5628 5627 5623
5601 5612 5629 5635 5640 5639 5640 5641 5657 5645 5639 5650 5650 5644 5645 5651 5654 5657 5662 5665 5663 5660 5659 5662 5662 5660 5658 5655 5653 5651 5648 5646 5646 5642 5638 5639 5636 5636 5632 5629 5628 5628 5626 5620 5621 5620 5620 5618 5614
5595 5617 5631 5638 5635 5632 5634 5646 5641 5653 5668 5669 5670 5653 5645 5649 5654 5660 5664 5666 5664 5656 5656 5657 5656 5654 5654 5653 5649 5645 5642 5640 5638 5634 5635 5633 5627 5629 5630 5623 5622 5619 5618 5614 5613 5612 5612 5609 5606
5597 5623 5625 5633 5627 5631 5631 5637 5647 5647 5661 5663 5662 5656 5657 5657 5660 5660 5658 5659 5660 5657 5654 5655 5651 5650 5648 5647 5644 5643 5636 5633 5632 5627 5625 5624 5622 5623 5625 5620 5614 5613 5610 5607 5606 5605 5604 5601 5598
5613 5622 5626 5626 5624 5618 5618 5630 5631 5647 5656 5652 5654 5657 5658 5661 5663 5657 5659 5663 5662 5655 5655 5651 5647 5645 5646 5641 5640 5636 5636 5629 5629 5622 5620 5618 5616 5617 5618 5614 5609 5606 5602 5600 5600 5599 5597 5593 5590
5605 5598 5610 5616 5619 5616 5615 5613 5631 5651 5648 5651 5653 5658 5657 5661 5658 5667 5674 5669 5666 5663 5657 5651 5644 5646 5644 5639 5637 5633 5627 5625 5619 5618 5614 5618 5610 5612 5611 5608 5603 5599 5595 5593 5592 5591 5589 5586 5584
5585 5583 5589 5619 5609 5611 5615 5640 5646 5654 5645 5650 5652 5657 5658 5661 5669 5670 5668 5667 5660 5659 5657 5648 5645 5643 5638 5635 5633 5627 5625 5622 5613 5612 5609 5612 5603 5608 5605 5601 5597 5592 5588 5586 5586 5583 5581 5578 5577
5562 5580 5588 5607 5611 5611 5614 5633 5649 5647 5647 5655 5654 5656 5659 5659 5662 5668 5673 5670 5664 5660 5654 5650 5647 5640 5638 5632 5627 5621 5619 5615 5608 5605 5606 5604 5598 5604 5599 5594 5590 5585 5581 5579 5579 5576 5572 5570 5569
5574 5573 5582 5599 5601 5606 5600 5621 5637 5640 5641 5652 5657 5656 5656 5662 5670 5673 5670 5667 5660 5653 5650 5649 5644 5639 5637 5627 5619 5615 5612 5607 5604 5602 5604 5597 5595 5598 5592 5588 5583 5578 5574 5572 5571 5569 5563 5560 5558
5574 5578 5591 5597 5609 5610 5614 5620 5636 5637 5635 5642 5650 5648 5649 5658 5670 5663 5664 5661 5657 5649 5647 5646 5644 5638 5636 5626 5620 5613 5610 5602 5597 5597 5597 5593 5592 5590 5587 5582 5575 5570 5569 5566 5563 5560 5556 5553 5550
5568 5579 5589 5586 5594 5599 5599 5609 5628 5626 5641 5646 5650 5653 5652 5654 5657 5659 5661 5660 5656 5655 5652 5645 5645 5640 5636 5627 5621 5616 5607 5599 5596 5594 5591 5588 5585 5583 5581 5576 5569 5565 5562 5558 5555 5550 5547 5542 5537
5554 5570 5560 5571 5574 5574 5584 5589 5612 5625 5637 5640 5651 5663 5661 5663 5662 5660 5659 5661 5657 5653 5653 5650 5647 5639 5635 5623 5616 5608 5597 5592 5589 5589 5584 5581 5579 5578 5576 5569 5562 5559 5556 5551 5546 5541 5537 5534 5524
5548 5558 5552 5553 5560 5562 5570 5581 5608 5627 5632 5632 5650 5657 5663 5664 5665 5663 5662 5659 5660 5661 5656 5650 5641 5641 5630 5625 5621 5616 5616 5606 5601 5591 5582 5577 5575 5572 5568 5561 5556 5552 5548 5542 5536 5532 5527 5521 5517
5544 5553 5544 5542 5549 5552 5556 5550 5621 5625 5627 5646 5648 5656 5664 5667 5668 5668 5667 5669 5666 5658 5655 5649 5642 5636 5630 5628 5623 5617 5614 5603 5595 5585 5576 5572 5568 5565 5561 5553 5549 5545 5540 5534 5529 5524 5516 5509 5505
5511 5514 5512 5510 5521 5522 5577 5569 5604 5618 5634 5636 5650 5660 5666 5667 5670 5676 5674 5667 5661 5654 5650 5646 5643 5638 5631 5625 5619 5616 5612 5602 5592 5581 5574 5567 5561 5556 5552 5547 5542 5539 5533 5526 5521 5515 5507 5500 5495
5514 5518 5499 5486 5489 5553 5577 5552 5595 5627 5638 5652 5651 5657 5665 5672 5676 5676 5672 5668 5662 5654 5650 5649 5646 5639 5633 5625 5618 5613 5609 5602 5595 5584 5576 5565 5557 5551 5546 5541 5536 5531 5525 5518 5513 5506 5498 5490 5485
5511 5518 5499 5500 5507 5565 5539 5548 5591 5622 5637 5648 5650 5661 5671 5673 5667 5668 5670 5669 5665 5659 5655 5652 5647 5638 5632 5624 5618 5610 5605 5598 5590 5582 5573 5562 5555 5547 5540 5534 5528 5523 5516 5510 5504 5496 5488 5481 5476
5494 5501 5535 5514 5494 5498 5533 5557 5579 5600 5616 5631 5647 5659 5671 5664 5658 5662 5666 5668 5664 5658 5654 5651 5644 5637 5630 5625 5616 5609 5602 5595 5588 5577 5566 5556 5547 5539 5532 5526 5520 5514 5508 5502 5495 5487 5479 5473 5467
5502 5526 5503 5506 5510 5514 5527 5540 5572 5598 5614 5633 5637 5639 5644 5649 5652 5652 5655 5659 5659 5656 5649 5643 5639 5636 5628 5620 5614 5607 5598 5590 5581 5571 5562 5551 5540 5532 5523 5516 5511 5503 5498 5492 5484 5478 5470 5464 5459
5488 5493 5505 5522 5509 5537 5545 5554 5570 5594 5598 5609 5621 5629 5634 5639 5641 5644 5643 5647 5648 5646 5642 5638 5632 5626 5618 5614 5607 5599 5591 5583 5574 5566 5556 5546 5535 5524 5515 5509 5502 5495 5488 5481 5475 5469 5462 5455 5450
5502 5501 5512 5507 5493 5507 5499 5539 5576 5586 5588 5592 5597 5605 5614 5619 5620 5623 5626 5628 5629 5632 5632 5630 5623 5616 5609 5605 5598 5589 5580 5571 5564 5555 5547 5537 5526 5516 5508 5500 5493 5486 5479 5471 5466 5459 5454 5448 5442